This demonstration page uses our WeatherBlox Daily Observations layout. Learn more.

Left ArrowRight Arrow

44.8408, -93.29828

Hourly Observations for May 26, 2016

Temp ( °F °C ) Dew Point ( °F °C ) Humidity (%) Winds ( mph kmh ) Pressure ( in mb ) Visibility ( mi km ) Precip ( " mm )
12:53 am 00:53 Partly Cloudy 67 19.4 62 16.7 84 84 SE 7 11 29.78 1009 10 16 0.00 0.00
1:53 am 01:53 Cloudy 66 18.9 62 16.7 87 87 SE 7 11 29.78 1009 10 16 0.00 0.00
2:23 am 02:23 Cloudy with Thunderstorms 66 18.9 63 17.2 90 90 Calm 29.80 1009 10 16 0.01 0.25
2:53 am 02:53 Windy with Storms Likely 67 19.4 63 17.2 87 87 S 22 35 29.78 1008 5 8 0.04 1.02
3:53 am 03:53 Cloudy with Thunderstorms 62 16.7 56 13.3 80 80 SSE 17 28 29.77 1008 5 8 0.11 2.79
4:23 am 04:23 Cloudy with Rain 62 16.7 56 13.3 80 80 SE 16 26 29.74 1007 6 10 0.09 2.29
4:53 am 04:53 Cloudy 67 19.4 52 11.1 59 59 VRB 7 11 29.72 1006 10 16 0.12 3.05
5:53 am 05:53 Cloudy 62 16.7 56 13.3 80 80 SSW 6 9 29.76 1008 10 16 0.00 0.00
6:53 am 06:53 Cloudy 61 16.1 57 13.9 87 87 W 6 9 29.78 1008 10 16 0.00 0.00
7:53 am 07:53 Mostly Cloudy 63 17.2 57 13.9 81 81 SW 9 15 29.80 1009 10 16 0.00 0.00
8:53 am 08:53 Partly Cloudy 65 18.3 57 13.9 76 76 SW 8 13 29.80 1009 10 16 0.00 0.00
9:53 am 09:53 Mostly Sunny 69 20.6 57 13.9 66 66 SW 12 19 29.80 1009 10 16 0.00 0.00
10:53 am 10:53 Sunny 72 22.2 57 13.9 59 59 W 13 20 29.79 1009 10 16 0.00 0.00
11:53 am 11:53 Sunny 76 24.4 56 13.3 50 50 WSW 9 15 29.79 1009 10 16 0.00 0.00
12:53 pm 12:53 Sunny 78 25.6 53 11.7 42 42 WSW 12 19 29.79 1009 10 16 0.00 0.00
1:53 pm 13:53 Mostly Sunny 79 26.1 53 11.7 41 41 W 15 24 29.80 1009 10 16 0.00 0.00
2:53 pm 14:53 Partly Cloudy 80 26.7 50 10 35 35 WNW 10 17 29.80 1009 10 16 0.00 0.00
3:53 pm 15:53 Partly Cloudy 80 26.7 50 10 35 35 WNW 15 24 29.79 1009 10 16 0.00 0.00
4:53 pm 16:53 Mostly Sunny 80 26.7 50 10 35 35 W 10 17 29.75 1008 10 16 0.00 0.00
5:53 pm 17:53 Mostly Cloudy 79 26.1 50 10 36 36 WSW 8 13 29.77 1008 10 16 0.00 0.00
6:53 pm 18:53 Cloudy 79 26.1 49 9.4 35 35 WSW 7 11 29.81 1010 10 16 0.00 0.00
7:53 pm 19:53 Cloudy 78 25.6 49 9.4 36 36 WSW 3 6 29.82 1010 10 16 0.00 0.00
8:53 pm 20:53 Cloudy 77 25 50 10 39 39 SSW 5 7 29.82 1010 10 16 0.00 0.00
9:53 pm 21:53 Cloudy 76 24.4 51 10.6 42 42 S 5 7 29.80 1009 10 16 0.00 0.00
10:53 pm 22:53 Cloudy 72 22.2 52 11.1 50 50 SE 3 6 29.79 1009 10 16 0.00 0.00
11:53 pm 23:53 Cloudy 72 22 54 12 53 53 S 6 9 29.80 1009 10 16 0.00 0.00

Powered by AerisWeather